DW6417 Weather Reports


Display with metric or nautical units.
time (UTC)temp
F
wind
direction
speed
MPH
gust
MPH
rain 1hr
in
rain 24hr
in
rain mn
in
humidity
%
barometer
mb
20260506050917 49 5 2.0 6.0 0.03 0.36 0.30 92 1004.6
20260506050625 49 29 2.0 4.0 0.02 0.35 0.29 92 1004.6
20260506050417 49 12 2.0 8.0 0.02 0.35 0.29 92 1004.6
20260506044625 49 12 3.0 8.0 0.03 0.35 0.28 92 1004.6
20260506044417 49 15 3.0 8.0 0.03 0.35 0.28 92 1004.6
20260506043917 49 25 3.0 8.0 0.04 0.35 0.28 92 1004.6
20260506043625 49 62 3.0 8.0 0.05 0.35 0.28 92 1004.6
20260506043417 49 27 3.0 8.0 0.05 0.35 0.28 92 1004.6
20260506042917 49 18 3.0 8.0 0.05 0.35 0.28 92 1004.6
20260506042624 49 26 3.0 8.0 0.05 0.34 0.28 92 1004.6
20260506042417 49 25 3.0 8.0 0.05 0.34 0.28 92 1004.6
20260506041917 49 25 2.0 6.0 0.06 0.34 0.28 92 1004.6
20260506041624 49 55 2.0 6.0 0.06 0.34 0.28 92 1004.6
20260506041417 49 3 2.0 8.0 0.06 0.34 0.28 92 1004.6
20260506040917 49 16 2.0 8.0 0.06 0.33 0.27 92 1004.6
20260506040625 49 5 2.0 5.0 0.06 0.33 0.27 92 1004.7
20260506040417 49 38 2.0 5.0 0.06 0.33 0.27 92 1004.7
20260506035917 49 21 2.0 6.0 0.06 0.33 0.26 92 1004.7
20260506035624 49 4 2.0 5.0 0.06 0.33 0.26 92 1004.6
20260506035417 49 359 2.0 6.0 0.06 0.33 0.26 92 1004.6
20260506034917 49 357 3.0 5.0 0.06 0.32 0.25 92 1004.7
20260506034624 48 355 3.0 5.0 0.06 0.32 0.25 92 1004.6
20260506034418 48 354 3.0 6.0 0.06 0.32 0.25 92 1004.6
20260506033917 48 351 2.0 6.0 0.06 0.31 0.24 92 1004.8
20260506033625 48 348 2.0 4.0 0.06 0.31 0.24 92 1004.7
20260506032624 48 359 2.0 5.0 0.06 0.30 0.23 92 1004.7
20260506032416 48 358 2.0 8.0 0.06 0.30 0.23 92 1004.7
20260506031625 48 344 2.0 8.0 0.06 0.29 0.22 92 1004.8
20260506031417 48 356 3.0 9.0 0.06 0.29 0.22 92 1004.8
20260506030917 48 1 2.0 9.0 0.06 0.28 0.21 92 1004.8
20260506030418 48 349 2.0 4.0 0.06 0.28 0.21 92 1004.8
20260506025918 48 358 2.0 8.0 0.06 0.28 0.20 92 1004.9
20260506025625 48 349 3.0 8.0 0.06 0.27 0.20 92 1004.9
20260506025417 48 7 2.0 8.0 0.06 0.27 0.20 92 1004.9
20260506024917 48 3 2.0 5.0 0.06 0.27 0.20 92 1005.0
20260506024624 48 12 2.0 5.0 0.07 0.26 0.19 92 1005.1
20260506024417 48 3 2.0 8.0 0.06 0.27 0.19 92 1005.0
20260506023917 48 9 3.0 8.0 0.08 0.27 0.19 92 1005.0
20260506023625 48 22 3.0 6.0 0.08 0.25 0.18 92 1005.1
20260506023419 48 8 3.0 8.0 0.08 0.27 0.18 92 1005.1
20260506022917 48 350 3.0 8.0 0.08 0.26 0.17 91 1005.0
20260506022626 48 348 3.0 7.0 0.09 0.24 0.17 91 1005.1
20260506022417 48 343 3.0 8.0 0.08 0.26 0.17 91 1005.1
20260506021917 48 7 2.0 8.0 0.08 0.26 0.17 91 1005.1
20260506021625 48 12 2.0 7.0 0.07 0.22 0.15 91 1005.2
20260506020917 48 9 2.0 7.0 0.07 0.24 0.15 91 1005.2
20260506020625 48 22 2.0 5.0 0.08 0.22 0.15 91 1005.2
20260506020417 48 2 2.0 8.0 0.08 0.24 0.15 91 1005.2
20260506015625 48 7 2.0 4.0 0.07 0.23 0.13 91 1005.3
20260506014917 48 11 3.0 8.0 0.07 0.22 0.13 91 1005.2
20260506014625 48 358 2.0 6.0 0.06 0.21 0.12 91 1005.2
20260506014417 48 7 2.0 6.0 0.06 0.21 0.12 91 1005.2
20260506013917 49 356 2.0 5.0 0.06 0.21 0.11 91 1005.3
20260506013417 49 14 2.0 5.0 0.06 0.21 0.10 91 1005.3
20260506012625 49 49 2.0 5.0 0.05 0.18 0.09 91 1005.4
20260506011917 49 8 2.0 9.0 0.05 0.20 0.09 91 1005.4
20260506011625 49 353 3.0 9.0 0.04 0.17 0.08 91 1005.5
20260506011417 49 17 3.0 9.0 0.04 0.20 0.08 91 1005.4
20260506010917 49 22 2.0 5.0 0.04 0.20 0.08 91 1005.4
20260506010417 49 12 3.0 6.0 0.04 0.19 0.07 91 1005.4
20260506005917 49 9 3.0 9.0 0.04 0.20 0.07 91 1005.5
20260506005417 49 4 3.0 9.0 0.04 0.19 0.06 91 1005.5
20260506004919 49 352 3.0 12.0 0.03 0.18 0.06 91 1005.5
20260506004625 49 356 3.0 12.0 0.03 0.18 0.06 91 1005.6
20260506004417 49 12 3.0 12.0 0.03 0.18 0.06 91 1005.6
20260506003917 49 19 3.0 9.0 0.02 0.17 0.05 90 1005.5
20260506003626 49 67 3.0 9.0 0.02 0.17 0.05 91 1005.6
20260506003417 49 19 3.0 9.0 0.02 0.17 0.05 91 1005.6
20260506002625 49 49 2.0 5.0 0.02 0.17 0.04 91 1005.7
20260506002417 49 34 3.0 9.0 0.02 0.17 0.04 91 1005.7
20260506001917 49 17 3.0 9.0 0.02 0.17 0.04 91 1005.6
20260506001625 49 29 3.0 7.0 0.02 0.17 0.04 91 1005.7
20260506001417 49 5 3.0 7.0 0.02 0.17 0.04 91 1005.7
20260506000917 49 16 2.0 6.0 0.02 0.17 0.04 91 1005.7
20260506000625 49 2 2.0 5.0 0.02 0.16 0.03 90 1005.8
20260506000417 49 28 2.0 7.0 0.02 0.16 0.03 90 1005.8
20260505235917 49 6 3.0 8.0 0.02 0.16 0.03 90 1005.8
20260505235625 49 351 3.0 8.0 0.01 0.15 0.02 90 1005.8
20260505235417 49 13 3.0 8.0 0.01 0.15 0.02 90 1005.8
20260505234917 49 28 2.0 6.0 0.01 0.15 0.02 90 1005.8
20260505234417 49 19 2.0 6.0 0.01 0.15 0.02 90 1005.9
20260505233917 49 18 2.0 6.0 0.02 0.15 0.02 90 1005.9
20260505233625 49 17 2.0 4.0 0.02 0.15 0.02 90 1005.9
20260505233418 49 23 2.0 5.0 0.02 0.15 0.02 90 1005.9
20260505232917 49 43 2.0 5.0 0.01 0.14 0.02 90 1006.0
20260505231917 49 56 2.0 7.0 0.01 0.14 0.02 90 1006.1
20260505231625 49 61 2.0 7.0 0.01 0.14 0.02 90 1006.0
20260505231419 49 18 2.0 9.0 0.01 0.14 0.02 90 1006.0
20260505230625 49 358 3.0 5.0 0.02 0.14 0.02 90 1006.0
20260505225625 50 12 2.0 4.0 0.02 0.14 0.02 90 1006.0
20260505225417 50 12 2.0 5.0 0.02 0.14 0.02 90 1006.0
20260505224917 50 11 2.0 5.0 0.02 0.14 0.02 90 1006.1
20260505224625 50 12 2.0 4.0 0.02 0.14 0.02 90 1006.2
20260505224417 50 13 2.0 9.0 0.02 0.14 0.02 90 1006.2
20260505223917 50 22 2.0 9.0 0.01 0.13 0.01 90 1006.3
20260505223625 50 358 2.0 5.0 0.01 0.13 0.01 90 1006.3
20260505222917 50 11 3.0 9.0 0.01 0.13 0.01 90 1006.4
20260505222625 50 1 3.0 9.0 0.01 0.13 0.01 90 1006.3
20260505222418 50 10 3.0 9.0 0.01 0.13 0.01 90 1006.3
20260505221625 50 353 3.0 6.0 0.00 0.13 0.00 90 1006.3
20260505221417 50 26 3.0 9.0 0.00 0.13 0.00 90 1006.3
20260505220917 50 24 3.0 9.0 0.00 0.13 0.00 90 1006.3
20260505220625 50 49 2.0 9.0 0.00 0.13 0.00 90 1006.3
20260505220418 50 14 2.0 9.0 0.00 0.13 0.00 90 1006.3
20260505215922 50 8 3.0 6.0 0.00 0.13 0.00 90 1006.4
20260505215625 50 17 2.0 6.0 0.00 0.13 0.13 90 1006.5
20260505215418 50 5 2.0 8.0 0.00 0.13 0.13 90 1006.5
20260505214917 50 16 2.0 8.0 0.00 0.13 0.13 90 1006.5
20260505214625 50 28 1.0 4.0 0.00 0.13 0.13 90 1006.5
20260505213917 50 27 3.0 9.0 0.01 0.13 0.13 90 1006.4
20260505213626 50 22 3.0 7.0 0.01 0.13 0.13 90 1006.5
20260505213417 50 29 3.0 7.0 0.01 0.13 0.13 90 1006.4
20260505212917 50 11 3.0 7.0 0.01 0.13 0.13 90 1006.5
20260505212417 50 357 3.0 6.0 0.01 0.13 0.13 90 1006.5
20260505211625 50 22 3.0 8.0 0.01 0.13 0.13 90 1006.6
20260505211417 50 29 3.0 9.0 0.01 0.13 0.13 90 1006.6
20260505210918 50 26 3.0 9.0 0.01 0.13 0.13 90 1006.6
20260505210625 50 63 3.0 9.0 0.02 0.13 0.13 90 1006.6
20260505210418 50 20 3.0 9.0 0.01 0.13 0.13 90 1006.6
20260505205625 51 47 3.0 9.0 0.02 0.13 0.13 90 1006.8
20260505205417 51 41 3.0 9.0 0.02 0.13 0.13 90 1006.8
20260505204917 51 26 3.0 12.0 0.02 0.13 0.13 90 1006.8
20260505204417 51 10 3.0 12.0 0.02 0.13 0.13 90 1006.7
20260505203917 51 4 2.0 5.0 0.02 0.13 0.12 90 1006.8
20260505203625 51 3 2.0 5.0 0.02 0.13 0.12 90 1006.7
20260505203417 51 4 3.0 6.0 0.02 0.13 0.12 90 1006.7
20260505202917 51 14 2.0 6.0 0.02 0.13 0.12 90 1006.8
20260505202625 51 2 2.0 5.0 0.02 0.13 0.12 90 1006.8
20260505201918 51 15 2.0 8.0 0.02 0.13 0.12 90 1006.7
20260505200917 51 42 2.0 8.0 0.02 0.13 0.12 90 1006.7
20260505200625 51 52 3.0 8.0 0.02 0.12 0.11 90 1006.7
20260505200417 51 32 2.0 8.0 0.02 0.12 0.11 90 1006.7
20260505195625 51 28 2.0 5.0 0.02 0.12 0.11 90 1006.7
20260505194917 51 60 2.0 9.0 0.01 0.11 0.10 90 1006.7
20260505194625 51 66 2.0 9.0 0.01 0.11 0.10 90 1006.7
20260505194417 51 53 2.0 9.0 0.01 0.11 0.10 90 1006.7
20260505193918 51 49 2.0 6.0 0.01 0.11 0.10 89 1006.7
20260505193625 51 48 1.0 6.0 0.01 0.11 0.10 89 1006.7
20260505193417 51 42 2.0 6.0 0.01 0.11 0.10 89 1006.7
20260505192917 51 46 2.0 5.0 0.00 0.10 0.09 89 1006.7
20260505192625 51 51 2.0 5.0 0.00 0.10 0.09 89 1006.7
20260505192417 51 41 2.0 6.0 0.00 0.10 0.09 89 1006.7
20260505191917 51 33 2.0 6.0 0.00 0.11 0.09 89 1006.6
20260505191418 51 49 2.0 7.0 0.00 0.11 0.09 89 1006.7
20260505190917 51 63 2.0 7.0 0.00 0.12 0.09 89 1006.7
20260505190625 51 69 2.0 5.0 0.00 0.10 0.09 89 1006.6
20260505190417 51 70 2.0 5.0 0.00 0.12 0.09 89 1006.6
20260505185917 51 70 2.0 5.0 0.00 0.12 0.09 88 1006.5
20260505185625 51 70 2.0 5.0 0.00 0.12 0.09 88 1006.5
20260505184917 51 39 3.0 9.0 0.00 0.12 0.09 88 1006.5
20260505184625 51 351 3.0 9.0 0.00 0.12 0.09 88 1006.5
20260505184417 51 42 3.0 11.0 0.00 0.12 0.09 88 1006.5
20260505183918 51 43 3.0 11.0 0.00 0.12 0.09 87 1006.5
20260505183625 51 45 3.0 7.0 0.00 0.12 0.09 88 1006.5
20260505183417 51 33 3.0 8.0 0.00 0.12 0.09 88 1006.5
20260505182918 51 36 3.0 8.0 0.00 0.12 0.09 88 1006.6
20260505182625 51 349 3.0 7.0 0.00 0.12 0.09 87 1006.5
20260505182417 51 37 3.0 8.0 0.00 0.12 0.09 87 1006.5
20260505181625 51 78 3.0 9.0 0.00 0.12 0.09 88 1006.7
20260505180918 51 64 2.0 9.0 0.00 0.12 0.09 88 1006.7
20260505180625 52 61 4.0 9.0 0.00 0.12 0.09 88 1006.7
20260505180418 51 50 3.0 9.0 0.00 0.12 0.09 88 1006.7
20260505175917 52 48 4.0 11.0 0.00 0.12 0.09 88 1006.7
20260505175625 52 45 4.0 11.0 0.00 0.12 0.09 88 1006.7
20260505175418 52 51 4.0 11.0 0.00 0.12 0.09 88 1006.7
20260505174918 52 27 3.0 10.0 0.00 0.12 0.09 88 1006.7
20260505174625 52 353 2.0 5.0 0.00 0.12 0.09 88 1006.7
20260505174417 52 357 2.0 8.0 0.00 0.12 0.09 88 1006.7
20260505173625 52 344 3.0 8.0 0.00 0.12 0.09 87 1006.7
20260505172918 52 21 2.0 6.0 0.00 0.12 0.09 87 1006.7
20260505172625 52 12 2.0 5.0 0.00 0.12 0.09 87 1006.8
20260505172418 52 31 3.0 12.0 0.00 0.12 0.09 87 1006.8
20260505171917 52 41 3.0 12.0 0.00 0.12 0.09 87 1006.8
20260505171418 52 47 3.0 9.0 0.00 0.12 0.09 87 1006.8
20260505170918 52 27 3.0 10.0 0.00 0.12 0.09 87 1006.8
20260505165918 52 12 3.0 9.0 0.00 0.12 0.09 87 1006.8
20260505165625 52 344 3.0 9.0 0.00 0.12 0.09 87 1006.8
20260505165417 52 31 3.0 9.0 0.00 0.12 0.09 87 1006.8
20260505164418 52 53 3.0 10.0 0.00 0.12 0.09 87 1006.7
20260505163918 52 49 4.0 11.0 0.00 0.12 0.09 87 1006.7
20260505163625 52 51 4.0 11.0 0.00 0.12 0.09 87 1006.6
20260505163419 52 54 4.0 11.0 0.00 0.12 0.09 87 1006.6
20260505162918 52 61 3.0 9.0 0.00 0.12 0.09 87 1006.7
20260505162625 52 66 2.0 5.0 0.00 0.12 0.09 87 1006.7
20260505162418 52 52 2.0 5.0 0.00 0.12 0.09 87 1006.7
20260505161918 52 41 2.0 5.0 0.00 0.12 0.09 87 1006.7
20260505161625 52 49 3.0 5.0 0.00 0.12 0.09 86 1006.8
20260505161419 52 29 3.0 6.0 0.00 0.12 0.09 86 1006.8
20260505160918 52 23 3.0 8.0 0.00 0.12 0.09 86 1006.8
20260505160625 52 1 3.0 8.0 0.00 0.12 0.09 86 1006.8
20260505160418 52 41 3.0 8.0 0.00 0.12 0.09 86 1006.8
20260505152625 53 64 3.0 11.0 0.00 0.12 0.09 86 1007.2
20260505152418 53 61 3.0 11.0 0.00 0.12 0.09 86 1007.2
20260505151917 53 63 3.0 9.0 0.00 0.12 0.09 86 1007.2
20260505151626 53 56 2.0 9.0 0.00 0.12 0.09 87 1007.3
20260505150418 53 60 3.0 10.0 0.00 0.12 0.09 87 1007.2
20260505140625 52 44 3.0 9.0 0.00 0.12 0.09 87 1007.5
20260505140418 52 55 3.0 9.0 0.00 0.12 0.09 87 1007.5
20260505124918 52 44 3.0 10.0 0.00 0.12 0.09 87 1007.9
20260505124625 52 68 3.0 9.0 0.00 0.12 0.09 88 1008.0
20260505124418 52 28 3.0 9.0 0.00 0.12 0.09 88 1008.0
20260505123917 52 24 3.0 8.0 0.00 0.12 0.09 88 1008.0
20260505122917 52 57 2.0 6.0 0.00 0.12 0.09 89 1008.0
20260505122625 52 57 2.0 5.0 0.00 0.12 0.09 89 1008.0
20260505122418 52 58 2.0 5.0 0.00 0.12 0.09 89 1008.0
20260505121918 52 58 2.0 4.0 0.00 0.12 0.09 89 1008.0
20260505121625 52 57 2.0 3.0 0.00 0.12 0.09 89 1008.1
20260505121418 52 58 2.0 4.0 0.00 0.12 0.09 89 1008.1
20260505120918 52 52 3.0 8.0 0.00 0.12 0.09 88 1008.0
20260505120626 52 59 3.0 8.0 0.00 0.12 0.09 89 1008.1
20260505120418 52 47 3.0 8.0 0.00 0.12 0.09 89 1008.1
20260505115918 52 50 3.0 9.0 0.00 0.12 0.09 88 1008.0
20260505115625 52 66 3.0 9.0 0.00 0.12 0.09 88 1008.1
20260505115418 52 51 3.0 9.0 0.00 0.12 0.09 88 1008.1
20260505114917 52 46 3.0 9.0 0.00 0.12 0.09 90 1008.1
20260505114418 52 69 3.0 9.0 0.00 0.12 0.09 89 1008.1
20260505113918 51 69 3.0 10.0 0.00 0.12 0.09 90 1008.2
20260505113626 51 47 3.0 10.0 0.01 0.12 0.09 89 1008.1
20260505113418 51 48 4.0 10.0 0.01 0.12 0.09 89 1008.1
20260505112625 51 41 3.0 9.0 0.01 0.12 0.09 89 1008.2
20260505112418 51 42 3.0 9.0 0.01 0.12 0.09 89 1008.2
20260505111918 51 33 3.0 11.0 0.01 0.12 0.09 90 1008.2
20260505111625 51 47 4.0 11.0 0.01 0.12 0.09 89 1008.1
20260505111417 51 34 4.0 11.0 0.01 0.12 0.09 89 1008.1
20260505110917 51 47 3.0 10.0 0.01 0.12 0.09 90 1008.2
20260505110626 51 73 3.0 10.0 0.02 0.12 0.09 90 1008.2
20260505110418 51 56 3.0 10.0 0.02 0.12 0.09 90 1008.2
20260505101627 51 66 2.0 6.0 0.02 0.11 0.09 90 1008.5
20260505101417 51 66 2.0 6.0 0.02 0.11 0.09 90 1008.5
20260505100918 51 68 2.0 6.0 0.02 0.11 0.09 90 1008.5
20260505100626 51 69 2.0 5.0 0.01 0.10 0.08 89 1008.5
20260505100417 51 48 3.0 9.0 0.01 0.10 0.08 89 1008.5
20260505095625 51 51 3.0 9.0 0.00 0.09 0.07 89 1008.5
20260505095418 51 48 2.0 9.0 0.00 0.09 0.07 89 1008.5
20260505094917 51 41 2.0 6.0 0.00 0.09 0.07 90 1008.5
20260505094625 51 40 2.0 6.0 0.00 0.09 0.07 89 1008.6
20260505094418 51 42 2.0 8.0 0.00 0.09 0.07 89 1008.6
20260505093919 51 43 2.0 8.0 0.00 0.09 0.07 89 1008.6
20260505093625 51 42 2.0 6.0 0.00 0.09 0.07 89 1008.6
20260505093418 51 42 2.0 8.0 0.00 0.09 0.07 89 1008.6
20260505092918 51 41 2.0 8.0 0.00 0.09 0.07 89 1008.6
20260505092625 51 41 2.0 5.0 0.00 0.09 0.07 89 1008.6
20260505091918 51 42 3.0 6.0 0.00 0.09 0.07 89 1008.6
20260505091625 51 41 3.0 6.0 0.00 0.09 0.07 89 1008.6
20260505091418 51 44 3.0 6.0 0.00 0.09 0.07 89 1008.6
20260505090918 51 46 3.0 6.0 0.00 0.09 0.07 90 1008.5
20260505090625 51 46 3.0 6.0 0.00 0.09 0.07 90 1008.6
20260505085918 51 41 3.0 9.0 0.00 0.09 0.07 89 1008.5
20260505085625 51 45 3.0 8.0 0.00 0.09 0.07 89 1008.5
20260505085418 51 34 2.0 8.0 0.00 0.09 0.07 89 1008.5
20260505084918 51 30 2.0 5.0 0.00 0.09 0.07 89 1008.4
20260505084626 51 30 2.0 5.0 0.00 0.09 0.07 89 1008.4
20260505083919 51 36 3.0 8.0 0.00 0.09 0.07 89 1008.4
20260505083627 51 36 3.0 8.0 0.01 0.09 0.07 89 1008.4
20260505083418 51 28 3.0 8.0 0.01 0.09 0.07 89 1008.4
20260505082918 51 26 2.0 8.0 0.01 0.09 0.07 89 1008.5
20260505082625 52 37 2.0 7.0 0.01 0.09 0.07 89 1008.5
20260505082418 52 40 3.0 7.0 0.01 0.09 0.07 89 1008.5
20260505081625 52 41 4.0 8.0 0.01 0.09 0.07 90 1008.4
20260505081418 52 44 3.0 8.0 0.01 0.09 0.07 90 1008.4
20260505080918 52 46 3.0 6.0 0.01 0.09 0.07 90 1008.3
20260505080626 52 45 3.0 5.0 0.01 0.09 0.07 90 1008.4
20260505080418 52 45 2.0 5.0 0.01 0.09 0.07 90 1008.4
20260505075919 52 43 2.0 4.0 0.01 0.09 0.07 90 1008.3
20260505075625 52 42 2.0 4.0 0.01 0.09 0.07 90 1008.3
20260505075418 52 43 2.0 8.0 0.01 0.09 0.07 90 1008.3
20260505074918 52 42 2.0 8.0 0.01 0.09 0.07 90 1008.3
20260505074625 52 41 1.0 8.0 0.01 0.09 0.07 90 1008.4
20260505074417 52 40 2.0 8.0 0.01 0.09 0.07 90 1008.4
20260505073917 52 39 3.0 8.0 0.01 0.09 0.07 90 1008.3
20260505073626 52 39 3.0 8.0 0.00 0.09 0.06 90 1008.3
20260505073418 52 39 3.0 8.0 0.00 0.09 0.06 90 1008.3
20260505072918 52 40 2.0 7.0 0.00 0.09 0.06 90 1008.3
20260505072418 52 41 2.0 6.0 0.00 0.09 0.06 90 1008.2
20260505071919 52 40 1.0 6.0 0.00 0.09 0.06 90 1008.3
20260505071625 52 40 2.0 5.0 0.00 0.09 0.06 90 1008.3
20260505071418 52 40 1.0 5.0 0.00 0.09 0.06 90 1008.3
20260505070918 52 40 2.0 4.0 0.00 0.09 0.06 90 1008.3
20260505070625 52 39 2.0 4.0 0.00 0.09 0.06 90 1008.3
20260505070418 52 40 2.0 5.0 0.00 0.09 0.06 90 1008.3
20260505065918 52 40 2.0 8.0 0.00 0.09 0.06 90 1008.3
20260505065626 52 39 2.0 8.0 0.00 0.09 0.06 90 1008.4
20260505065418 52 39 2.0 8.0 0.00 0.09 0.06 90 1008.4
20260505064918 52 39 2.0 7.0 0.00 0.09 0.06 90 1008.4
20260505064626 52 39 1.0 5.0 0.00 0.09 0.06 90 1008.4
20260505063919 52 37 2.0 7.0 0.00 0.09 0.06 90 1008.4
20260505063626 52 36 2.0 5.0 0.00 0.09 0.06 90 1008.4
20260505063418 52 37 2.0 5.0 0.00 0.09 0.06 90 1008.4
20260505062918 52 38 2.0 5.0 0.00 0.09 0.06 90 1008.6
20260505062626 53 37 2.0 5.0 0.00 0.09 0.06 90 1008.5
20260505062418 53 38 2.0 5.0 0.00 0.09 0.06 90 1008.5
20260505061918 53 39 1.0 4.0 0.00 0.09 0.06 90 1008.5
20260505061626 53 38 0.0 5.0 0.00 0.09 0.06 90 1008.5
20260505061418 53 39 1.0 5.0 0.00 0.09 0.06 90 1008.4
20260505060918 53 39 2.0 5.0 0.00 0.09 0.06 90 1008.5
20260505060625 53 39 1.0 4.0 0.00 0.09 0.06 90 1008.5
20260505060418 53 40 1.0 4.0 0.00 0.09 0.06 90 1008.5
20260505055918 53 40 1.0 3.0 0.00 0.09 0.06 90 1008.5
20260505055626 53 39 0.0 3.0 0.00 0.09 0.06 90 1008.4
20260505055418 53 40 1.0 3.0 0.00 0.09 0.06 90 1008.4
20260505054918 53 45 1.0 6.0 0.00 0.09 0.06 90 1008.4
20260505054625 53 39 1.0 6.0 0.00 0.09 0.06 90 1008.4
20260505054418 53 51 2.0 6.0 0.00 0.09 0.06 90 1008.4